owner,sensor,date,latitude,longitude,air_pressure(mBar),qcFlag 
COMPS,ioos:station:USF.COMPS:C10:1,2019-10-03T13:35:00,27.1690,-82.9260,1015.73,11111222 
COMPS,ioos:station:USF.COMPS:C10:1,2019-10-03T14:35:00,27.1690,-82.9260,1015.87,11111222 
COMPS,ioos:station:USF.COMPS:C10:1,2019-10-03T15:35:00,27.1690,-82.9260,1015.92,11111222 
COMPS,ioos:station:USF.COMPS:C10:1,2019-10-03T16:35:00,27.1690,-82.9260,1015.74,11111222 
COMPS,ioos:station:USF.COMPS:C10:1,2019-10-03T17:35:00,27.1690,-82.9260,1015.25,11111222 
COMPS,ioos:station:USF.COMPS:C10:1,2019-10-03T18:35:00,27.1690,-82.9260,1014.58,11111222 
COMPS,ioos:station:USF.COMPS:C10:1,2019-10-03T19:35:00,27.1690,-82.9260,1014.1,11111222 
COMPS,ioos:station:USF.COMPS:C10:1,2019-10-03T20:35:00,27.1690,-82.9260,1013.86,11111222 
COMPS,ioos:station:USF.COMPS:C10:1,2019-10-03T21:35:00,27.1690,-82.9260,1013.55,11111222 
COMPS,ioos:station:USF.COMPS:C10:1,2019-10-03T22:35:00,27.1690,-82.9260,1013.66,11111222 
COMPS,ioos:station:USF.COMPS:C10:1,2019-10-03T23:35:00,27.1690,-82.9260,1013.88,11111222 
COMPS,ioos:station:USF.COMPS:C10:1,2019-10-04T00:35:00,27.1690,-82.9260,1014.13,11111222 
COMPS,ioos:station:USF.COMPS:C10:1,2019-10-04T01:35:00,27.1690,-82.9260,1014.83,11111222 
COMPS,ioos:station:USF.COMPS:C10:1,2019-10-04T02:35:00,27.1690,-82.9260,1015.35,11111222 
COMPS,ioos:station:USF.COMPS:C10:1,2019-10-04T03:35:00,27.1690,-82.9260,1015.75,11111222 
COMPS,ioos:station:USF.COMPS:C10:1,2019-10-04T04:35:00,27.1690,-82.9260,1015.65,11111222 
COMPS,ioos:station:USF.COMPS:C10:1,2019-10-04T05:35:00,27.1690,-82.9260,1015.43,11111222 
COMPS,ioos:station:USF.COMPS:C10:1,2019-10-04T06:35:00,27.1690,-82.9260,1015.25,11111222 
COMPS,ioos:station:USF.COMPS:C10:1,2019-10-04T07:35:00,27.1690,-82.9260,1014.75,11111222 
COMPS,ioos:station:USF.COMPS:C10:1,2019-10-04T08:35:00,27.1690,-82.9260,1014.66,11111222 
COMPS,ioos:station:USF.COMPS:C10:1,2019-10-04T09:35:00,27.1690,-82.9260,1014.75,11111222 
COMPS,ioos:station:USF.COMPS:C10:1,2019-10-04T10:35:00,27.1690,-82.9260,1015.0,11111222 
COMPS,ioos:station:USF.COMPS:C10:1,2019-10-04T11:35:00,27.1690,-82.9260,1015.58,11111222 
COMPS,ioos:station:USF.COMPS:C10:1,2019-10-04T12:35:00,27.1690,-82.9260,1015.94,11111222 
COMPS,ioos:station:USF.COMPS:C10:1,2019-10-04T13:35:00,27.1690,-82.9260,1016.39,11111222 
COMPS,ioos:station:USF.COMPS:C10:1,2019-10-04T14:35:00,27.1690,-82.9260,1016.9,11111222 
COMPS,ioos:station:USF.COMPS:C10:1,2019-10-04T15:35:00,27.1690,-82.9260,1016.75,11111222 
COMPS,ioos:station:USF.COMPS:C10:1,2019-10-04T16:35:00,27.1690,-82.9260,1016.34,11111222 
COMPS,ioos:station:USF.COMPS:C10:1,2019-10-04T17:35:00,27.1690,-82.9260,1015.78,11111222 
COMPS,ioos:station:USF.COMPS:C10:1,2019-10-04T18:35:00,27.1690,-82.9260,1014.75,11111222 
COMPS,ioos:station:USF.COMPS:C10:1,2019-10-04T19:35:00,27.1690,-82.9260,1013.92,11111222 
COMPS,ioos:station:USF.COMPS:C10:1,2019-10-04T20:35:00,27.1690,-82.9260,1013.64,11111222 
COMPS,ioos:station:USF.COMPS:C10:1,2019-10-04T21:35:00,27.1690,-82.9260,1013.44,11111222 
COMPS,ioos:station:USF.COMPS:C10:1,2019-10-04T22:35:00,27.1690,-82.9260,1013.47,11111222 
COMPS,ioos:station:USF.COMPS:C10:1,2019-10-04T23:35:00,27.1690,-82.9260,1013.65,11111222 
COMPS,ioos:station:USF.COMPS:C10:1,2019-10-05T00:35:00,27.1690,-82.9260,1013.71,11111222 
COMPS,ioos:station:USF.COMPS:C10:1,2019-10-05T01:35:00,27.1690,-82.9260,1014.06,11111222 
COMPS,ioos:station:USF.COMPS:C10:1,2019-10-05T02:35:00,27.1690,-82.9260,1014.65,11111222 
COMPS,ioos:station:USF.COMPS:C10:1,2019-10-05T03:35:00,27.1690,-82.9260,1014.96,11111222 
COMPS,ioos:station:USF.COMPS:C10:1,2019-10-05T04:35:00,27.1690,-82.9260,1014.86,11111222 
COMPS,ioos:station:USF.COMPS:C10:1,2019-10-05T05:35:00,27.1690,-82.9260,1014.22,11111222 
COMPS,ioos:station:USF.COMPS:C10:1,2019-10-05T06:35:00,27.1690,-82.9260,1014.05,11111222 
COMPS,ioos:station:USF.COMPS:C10:1,2019-10-05T07:35:00,27.1690,-82.9260,1013.67,11111222 
COMPS,ioos:station:USF.COMPS:C10:1,2019-10-05T08:35:00,27.1690,-82.9260,1013.37,11111222 
COMPS,ioos:station:USF.COMPS:C10:1,2019-10-05T09:35:00,27.1690,-82.9260,1013.6,11111222 
COMPS,ioos:station:USF.COMPS:C10:1,2019-10-05T10:35:00,27.1690,-82.9260,1013.9,11111222 
COMPS,ioos:station:USF.COMPS:C10:1,2019-10-05T11:35:00,27.1690,-82.9260,1014.38,11111222 
COMPS,ioos:station:USF.COMPS:C10:1,2019-10-05T12:35:00,27.1690,-82.9260,1015.06,11111222 
COMPS,ioos:station:USF.COMPS:C10:1,2019-10-05T13:35:00,27.1690,-82.9260,1015.62,11111222 
COMPS,ioos:station:USF.COMPS:C10:1,2019-10-05T14:35:00,27.1690,-82.9260,1016.09,11111222 
COMPS,ioos:station:USF.COMPS:C10:1,2019-10-05T15:35:00,27.1690,-82.9260,1016.21,11111222 
COMPS,ioos:station:USF.COMPS:C10:1,2019-10-05T16:35:00,27.1690,-82.9260,1015.68,11111222 
COMPS,ioos:station:USF.COMPS:C10:1,2019-10-05T17:35:00,27.1690,-82.9260,1014.65,11111222 
COMPS,ioos:station:USF.COMPS:C10:1,2019-10-05T18:35:00,27.1690,-82.9260,1013.65,11111222 
COMPS,ioos:station:USF.COMPS:C10:1,2019-10-05T19:35:00,27.1690,-82.9260,1013.03,11111222 
COMPS,ioos:station:USF.COMPS:C10:1,2019-10-05T20:35:00,27.1690,-82.9260,1013.23,11111222 
COMPS,ioos:station:USF.COMPS:C10:1,2019-10-05T21:35:00,27.1690,-82.9260,1012.93,11111222 
COMPS,ioos:station:USF.COMPS:C10:1,2019-10-05T22:35:00,27.1690,-82.9260,1012.95,11111222 
COMPS,ioos:station:USF.COMPS:C10:1,2019-10-05T23:35:00,27.1690,-82.9260,1013.06,11111222 
COMPS,ioos:station:USF.COMPS:C10:1,2019-10-06T00:35:00,27.1690,-82.9260,1013.73,11111222 
COMPS,ioos:station:USF.COMPS:C10:1,2019-10-06T01:35:00,27.1690,-82.9260,1014.24,11111222 
COMPS,ioos:station:USF.COMPS:C10:1,2019-10-06T02:35:00,27.1690,-82.9260,1014.56,11111222 
COMPS,ioos:station:USF.COMPS:C10:1,2019-10-06T03:35:00,27.1690,-82.9260,1014.67,11111222 
COMPS,ioos:station:USF.COMPS:C10:1,2019-10-06T04:35:00,27.1690,-82.9260,1014.4,11111222 
COMPS,ioos:station:USF.COMPS:C10:1,2019-10-06T05:35:00,27.1690,-82.9260,1014.3,11111222 
COMPS,ioos:station:USF.COMPS:C10:1,2019-10-06T06:35:00,27.1690,-82.9260,1014.13,11111222 
COMPS,ioos:station:USF.COMPS:C10:1,2019-10-06T07:35:00,27.1690,-82.9260,1014.12,11111222 
COMPS,ioos:station:USF.COMPS:C10:1,2019-10-06T08:35:00,27.1690,-82.9260,1013.88,11111222 
COMPS,ioos:station:USF.COMPS:C10:1,2019-10-06T09:35:00,27.1690,-82.9260,1014.03,11111222 
COMPS,ioos:station:USF.COMPS:C10:1,2019-10-06T10:35:00,27.1690,-82.9260,1014.38,11111222 
COMPS,ioos:station:USF.COMPS:C10:1,2019-10-06T11:35:00,27.1690,-82.9260,1014.8,11111222 
COMPS,ioos:station:USF.COMPS:C10:1,2019-10-06T12:35:00,27.1690,-82.9260,1015.19,11111222 
COMPS,ioos:station:USF.COMPS:C10:1,2019-10-06T13:35:00,27.1690,-82.9260,1015.59,11111222 
COMPS,ioos:station:USF.COMPS:C10:1,2019-10-06T14:35:00,27.1690,-82.9260,1015.81,11111222 
COMPS,ioos:station:USF.COMPS:C10:1,2019-10-06T15:35:00,27.1690,-82.9260,1015.91,11111222 
COMPS,ioos:station:USF.COMPS:C10:1,2019-10-06T16:35:00,27.1690,-82.9260,1015.44,11111222 
COMPS,ioos:station:USF.COMPS:C10:1,2019-10-06T17:35:00,27.1690,-82.9260,1014.81,11111222 
COMPS,ioos:station:USF.COMPS:C10:1,2019-10-06T18:35:00,27.1690,-82.9260,1014.23,11111222 
COMPS,ioos:station:USF.COMPS:C10:1,2019-10-06T19:35:00,27.1690,-82.9260,1013.48,11111222 
COMPS,ioos:station:USF.COMPS:C10:1,2019-10-06T20:35:00,27.1690,-82.9260,1012.98,11111222 
COMPS,ioos:station:USF.COMPS:C10:1,2019-10-06T21:35:00,27.1690,-82.9260,1013.23,11111222 
COMPS,ioos:station:USF.COMPS:C10:1,2019-10-06T22:35:00,27.1690,-82.9260,1012.89,11111222 
COMPS,ioos:station:USF.COMPS:C10:1,2019-10-06T23:35:00,27.1690,-82.9260,1013.22,11111222 
COMPS,ioos:station:USF.COMPS:C10:1,2019-10-07T00:35:00,27.1690,-82.9260,1013.44,11111222 
COMPS,ioos:station:USF.COMPS:C10:1,2019-10-07T01:35:00,27.1690,-82.9260,1013.82,11111222 
COMPS,ioos:station:USF.COMPS:C10:1,2019-10-07T02:35:00,27.1690,-82.9260,1014.4,11111222 
COMPS,ioos:station:USF.COMPS:C10:1,2019-10-07T03:35:00,27.1690,-82.9260,1014.36,11111222 
COMPS,ioos:station:USF.COMPS:C10:1,2019-10-07T04:35:00,27.1690,-82.9260,1013.54,11111222 
COMPS,ioos:station:USF.COMPS:C10:1,2019-10-07T05:35:00,27.1690,-82.9260,1012.89,11111222 
COMPS,ioos:station:USF.COMPS:C10:1,2019-10-07T06:35:00,27.1690,-82.9260,1012.22,11111222 
COMPS,ioos:station:USF.COMPS:C10:1,2019-10-07T07:35:00,27.1690,-82.9260,1011.66,11111222 
COMPS,ioos:station:USF.COMPS:C10:1,2019-10-07T08:35:00,27.1690,-82.9260,1011.44,11111222 
COMPS,ioos:station:USF.COMPS:C10:1,2019-10-07T09:35:00,27.1690,-82.9260,1011.43,11111222 
COMPS,ioos:station:USF.COMPS:C10:1,2019-10-07T10:35:00,27.1690,-82.9260,1011.45,11111222 
COMPS,ioos:station:USF.COMPS:C10:1,2019-10-07T11:35:00,27.1690,-82.9260,1011.78,11111222 
COMPS,ioos:station:USF.COMPS:C10:1,2019-10-07T12:35:00,27.1690,-82.9260,1012.09,11111222 
COMPS,ioos:station:USF.COMPS:C10:1,2019-10-07T14:35:00,27.1690,-82.9260,1012.49,11111222 
COMPS,ioos:station:USF.COMPS:C10:1,2019-10-07T15:35:00,27.1690,-82.9260,1012.37,11111222 
COMPS,ioos:station:USF.COMPS:C10:1,2019-10-07T16:35:00,27.1690,-82.9260,1012.1,11111222 
COMPS,ioos:station:USF.COMPS:C10:1,2019-10-07T17:35:00,27.1690,-82.9260,1011.3,11111222 
COMPS,ioos:station:USF.COMPS:C10:1,2019-10-07T18:35:00,27.1690,-82.9260,1010.28,11111222 
COMPS,ioos:station:USF.COMPS:C10:1,2019-10-07T19:35:00,27.1690,-82.9260,1009.71,11111222 
COMPS,ioos:station:USF.COMPS:C10:1,2019-10-07T20:35:00,27.1690,-82.9260,1009.41,11111222 
COMPS,ioos:station:USF.COMPS:C10:1,2019-10-07T21:35:00,27.1690,-82.9260,1009.55,11111222 
COMPS,ioos:station:USF.COMPS:C10:1,2019-10-07T22:35:00,27.1690,-82.9260,1009.82,11111222 
COMPS,ioos:station:USF.COMPS:C10:1,2019-10-07T23:35:00,27.1690,-82.9260,1009.76,11111222 
COMPS,ioos:station:USF.COMPS:C10:1,2019-10-08T00:35:00,27.1690,-82.9260,1010.16,11111222 
COMPS,ioos:station:USF.COMPS:C10:1,2019-10-08T01:35:00,27.1690,-82.9260,1010.7,11111222 
COMPS,ioos:station:USF.COMPS:C10:1,2019-10-08T02:35:00,27.1690,-82.9260,1010.92,11111222 
COMPS,ioos:station:USF.COMPS:C10:1,2019-10-08T03:35:00,27.1690,-82.9260,1011.21,11111222 
COMPS,ioos:station:USF.COMPS:C10:1,2019-10-08T04:35:00,27.1690,-82.9260,1010.41,11111222 
COMPS,ioos:station:USF.COMPS:C10:1,2019-10-08T05:35:00,27.1690,-82.9260,1010.35,11111222 
COMPS,ioos:station:USF.COMPS:C10:1,2019-10-08T06:35:00,27.1690,-82.9260,1010.28,11111222 
COMPS,ioos:station:USF.COMPS:C10:1,2019-10-08T07:35:00,27.1690,-82.9260,1009.72,11111222 
COMPS,ioos:station:USF.COMPS:C10:1,2019-10-08T08:35:00,27.1690,-82.9260,1009.85,11111222 
COMPS,ioos:station:USF.COMPS:C10:1,2019-10-08T09:35:00,27.1690,-82.9260,1009.77,11111222 
COMPS,ioos:station:USF.COMPS:C10:1,2019-10-08T10:35:00,27.1690,-82.9260,1009.92,11111222 
COMPS,ioos:station:USF.COMPS:C10:1,2019-10-08T11:35:00,27.1690,-82.9260,1010.38,11111222 
COMPS,ioos:station:USF.COMPS:C10:1,2019-10-08T12:35:00,27.1690,-82.9260,1011.3,11111222 
COMPS,ioos:station:USF.COMPS:C10:1,2019-10-08T13:35:00,27.1690,-82.9260,1011.89,11111222 
COMPS,ioos:station:USF.COMPS:C10:1,2019-10-08T14:35:00,27.1690,-82.9260,1012.69,11111222 
COMPS,ioos:station:USF.COMPS:C10:1,2019-10-08T15:35:00,27.1690,-82.9260,1012.68,11111222 
COMPS,ioos:station:USF.COMPS:C10:1,2019-10-08T16:35:00,27.1690,-82.9260,1012.43,11111222 
COMPS,ioos:station:USF.COMPS:C10:1,2019-10-08T17:35:00,27.1690,-82.9260,1011.92,11111222 
COMPS,ioos:station:USF.COMPS:C10:1,2019-10-08T18:35:00,27.1690,-82.9260,1011.45,11111222 
COMPS,ioos:station:USF.COMPS:C10:1,2019-10-08T19:35:00,27.1690,-82.9260,1011.33,11111222 
COMPS,ioos:station:USF.COMPS:C10:1,2019-10-08T20:35:00,27.1690,-82.9260,1011.12,11111222 
COMPS,ioos:station:USF.COMPS:C10:1,2019-10-08T21:35:00,27.1690,-82.9260,1011.16,11111222 
COMPS,ioos:station:USF.COMPS:C10:1,2019-10-08T22:35:00,27.1690,-82.9260,1011.27,11111222 
COMPS,ioos:station:USF.COMPS:C10:1,2019-10-08T23:35:00,27.1690,-82.9260,1012.16,11111222 
COMPS,ioos:station:USF.COMPS:C10:1,2019-10-09T00:35:00,27.1690,-82.9260,1012.38,11111222 
COMPS,ioos:station:USF.COMPS:C10:1,2019-10-09T01:35:00,27.1690,-82.9260,1012.97,11111222 
COMPS,ioos:station:USF.COMPS:C10:1,2019-10-09T02:35:00,27.1690,-82.9260,1013.49,11111222 
COMPS,ioos:station:USF.COMPS:C10:1,2019-10-09T03:35:00,27.1690,-82.9260,1013.6,11111222 
COMPS,ioos:station:USF.COMPS:C10:1,2019-10-09T04:35:00,27.1690,-82.9260,1013.2,11111222 
COMPS,ioos:station:USF.COMPS:C10:1,2019-10-09T05:35:00,27.1690,-82.9260,1012.67,11111222 
COMPS,ioos:station:USF.COMPS:C10:1,2019-10-09T06:35:00,27.1690,-82.9260,1012.33,11111222 
COMPS,ioos:station:USF.COMPS:C10:1,2019-10-09T07:35:00,27.1690,-82.9260,1012.22,11111222 
COMPS,ioos:station:USF.COMPS:C10:1,2019-10-09T08:35:00,27.1690,-82.9260,1012.14,11111222 
COMPS,ioos:station:USF.COMPS:C10:1,2019-10-09T09:35:00,27.1690,-82.9260,1012.71,11111222 
COMPS,ioos:station:USF.COMPS:C10:1,2019-10-09T10:35:00,27.1690,-82.9260,1013.44,11111222 
COMPS,ioos:station:USF.COMPS:C10:1,2019-10-09T11:35:00,27.1690,-82.9260,1013.57,11111222 
COMPS,ioos:station:USF.COMPS:C10:1,2019-10-09T12:35:00,27.1690,-82.9260,1013.88,11111222 
COMPS,ioos:station:USF.COMPS:C10:1,2019-10-09T13:35:00,27.1690,-82.9260,1014.27,11111222 
COMPS,ioos:station:USF.COMPS:C10:1,2019-10-09T14:35:00,27.1690,-82.9260,1015.12,11111222 
COMPS,ioos:station:USF.COMPS:C10:1,2019-10-09T15:35:00,27.1690,-82.9260,1015.18,11111222 
COMPS,ioos:station:USF.COMPS:C10:1,2019-10-09T16:35:00,27.1690,-82.9260,1015.15,11111222 
COMPS,ioos:station:USF.COMPS:C10:1,2019-10-09T17:35:00,27.1690,-82.9260,1014.39,11111222 
COMPS,ioos:station:USF.COMPS:C10:1,2019-10-09T18:35:00,27.1690,-82.9260,1013.64,11111222 
COMPS,ioos:station:USF.COMPS:C10:1,2019-10-09T19:35:00,27.1690,-82.9260,1013.35,11111222 
COMPS,ioos:station:USF.COMPS:C10:1,2019-10-09T20:35:00,27.1690,-82.9260,1013.54,11111222 
COMPS,ioos:station:USF.COMPS:C10:1,2019-10-09T21:35:00,27.1690,-82.9260,1013.12,11111222 
COMPS,ioos:station:USF.COMPS:C10:1,2019-10-09T22:35:00,27.1690,-82.9260,1013.51,11111222 
COMPS,ioos:station:USF.COMPS:C10:1,2019-10-10T01:35:00,27.1690,-82.9260,1015.49,11111222 
COMPS,ioos:station:USF.COMPS:C10:1,2019-10-10T02:35:00,27.1690,-82.9260,1015.25,11111222 
COMPS,ioos:station:USF.COMPS:C10:1,2019-10-10T03:35:00,27.1690,-82.9260,1015.22,11111222 
COMPS,ioos:station:USF.COMPS:C10:1,2019-10-10T04:35:00,27.1690,-82.9260,1015.03,11111222 
COMPS,ioos:station:USF.COMPS:C10:1,2019-10-10T05:35:00,27.1690,-82.9260,1015.3,11111222 
COMPS,ioos:station:USF.COMPS:C10:1,2019-10-10T06:35:00,27.1690,-82.9260,1015.11,11111222 
COMPS,ioos:station:USF.COMPS:C10:1,2019-10-10T07:35:00,27.1690,-82.9260,1014.49,11111222 
COMPS,ioos:station:USF.COMPS:C10:1,2019-10-10T08:35:00,27.1690,-82.9260,1014.35,11111222 
COMPS,ioos:station:USF.COMPS:C10:1,2019-10-10T09:35:00,27.1690,-82.9260,1014.7,11111222 
COMPS,ioos:station:USF.COMPS:C10:1,2019-10-10T10:35:00,27.1690,-82.9260,1015.13,11111222 
COMPS,ioos:station:USF.COMPS:C10:1,2019-10-10T11:35:00,27.1690,-82.9260,1015.52,11111222 
COMPS,ioos:station:USF.COMPS:C10:1,2019-10-10T12:35:00,27.1690,-82.9260,1015.83,11111222 
COMPS,ioos:station:USF.COMPS:C10:1,2019-10-10T13:35:00,27.1690,-82.9260,1016.18,11111222 
COMPS,ioos:station:USF.COMPS:C10:1,2019-10-10T14:35:00,27.1690,-82.9260,1016.27,11111222 
COMPS,ioos:station:USF.COMPS:C10:1,2019-10-10T15:35:00,27.1690,-82.9260,1016.01,11111222 
COMPS,ioos:station:USF.COMPS:C10:1,2019-10-10T16:35:00,27.1690,-82.9260,1015.61,11111222 
COMPS,ioos:station:USF.COMPS:C10:1,2019-10-10T17:35:00,27.1690,-82.9260,1014.97,11111222 
COMPS,ioos:station:USF.COMPS:C10:1,2019-10-10T18:35:00,27.1690,-82.9260,1014.12,11111222 
COMPS,ioos:station:USF.COMPS:C10:1,2019-10-10T19:35:00,27.1690,-82.9260,1013.64,11111222 
COMPS,ioos:station:USF.COMPS:C10:1,2019-10-10T20:35:00,27.1690,-82.9260,1013.22,11111222 
COMPS,ioos:station:USF.COMPS:C10:1,2019-10-10T21:35:00,27.1690,-82.9260,1013.25,11111222 
COMPS,ioos:station:USF.COMPS:C10:1,2019-10-10T22:35:00,27.1690,-82.9260,1013.31,11111222 
COMPS,ioos:station:USF.COMPS:C10:1,2019-10-10T23:35:00,27.1690,-82.9260,1013.5,11111222 
COMPS,ioos:station:USF.COMPS:C10:1,2019-10-11T00:35:00,27.1690,-82.9260,1013.83,11111222 
COMPS,ioos:station:USF.COMPS:C10:1,2019-10-11T01:35:00,27.1690,-82.9260,1014.59,11111222 
COMPS,ioos:station:USF.COMPS:C10:1,2019-10-11T02:35:00,27.1690,-82.9260,1015.34,11111222 
COMPS,ioos:station:USF.COMPS:C10:1,2019-10-11T03:35:00,27.1690,-82.9260,1015.59,11111222 
COMPS,ioos:station:USF.COMPS:C10:1,2019-10-11T04:35:00,27.1690,-82.9260,1015.39,11111222 
COMPS,ioos:station:USF.COMPS:C10:1,2019-10-11T05:35:00,27.1690,-82.9260,1014.94,11111222 
COMPS,ioos:station:USF.COMPS:C10:1,2019-10-11T06:35:00,27.1690,-82.9260,1014.7,11111222 
COMPS,ioos:station:USF.COMPS:C10:1,2019-10-11T07:35:00,27.1690,-82.9260,1014.22,11111222 
COMPS,ioos:station:USF.COMPS:C10:1,2019-10-11T08:35:00,27.1690,-82.9260,1014.05,11111222 
COMPS,ioos:station:USF.COMPS:C10:1,2019-10-11T09:35:00,27.1690,-82.9260,1014.34,11111222 
COMPS,ioos:station:USF.COMPS:C10:1,2019-10-11T10:35:00,27.1690,-82.9260,1014.7,11111222 
COMPS,ioos:station:USF.COMPS:C10:1,2019-10-11T11:35:00,27.1690,-82.9260,1015.18,11111222 
COMPS,ioos:station:USF.COMPS:C10:1,2019-10-11T12:35:00,27.1690,-82.9260,1015.54,11111222 
COMPS,ioos:station:USF.COMPS:C10:1,2019-10-11T13:35:00,27.1690,-82.9260,1016.2,11111222 
COMPS,ioos:station:USF.COMPS:C10:1,2019-10-11T14:35:00,27.1690,-82.9260,1016.65,11111222 
COMPS,ioos:station:USF.COMPS:C10:1,2019-10-11T15:35:00,27.1690,-82.9260,1016.57,11111222 
COMPS,ioos:station:USF.COMPS:C10:1,2019-10-11T16:35:00,27.1690,-82.9260,1016.3,11111222 
COMPS,ioos:station:USF.COMPS:C10:1,2019-10-11T17:35:00,27.1690,-82.9260,1015.49,11111222 
COMPS,ioos:station:USF.COMPS:C10:1,2019-10-11T18:35:00,27.1690,-82.9260,1014.87,11111222 
COMPS,ioos:station:USF.COMPS:C10:1,2019-10-11T19:35:00,27.1690,-82.9260,1014.41,11111222 
COMPS,ioos:station:USF.COMPS:C10:1,2019-10-11T20:35:00,27.1690,-82.9260,1014.09,11111222 
COMPS,ioos:station:USF.COMPS:C10:1,2019-10-11T21:35:00,27.1690,-82.9260,1013.91,11111222 
COMPS,ioos:station:USF.COMPS:C10:1,2019-10-11T22:35:00,27.1690,-82.9260,1013.92,11111222 
COMPS,ioos:station:USF.COMPS:C10:1,2019-10-11T23:35:00,27.1690,-82.9260,1014.19,11111222 
COMPS,ioos:station:USF.COMPS:C10:1,2019-10-12T00:35:00,27.1690,-82.9260,1014.82,11111222 
COMPS,ioos:station:USF.COMPS:C10:1,2019-10-12T01:35:00,27.1690,-82.9260,1015.62,11111222 
COMPS,ioos:station:USF.COMPS:C10:1,2019-10-12T02:35:00,27.1690,-82.9260,1016.22,11111222 
COMPS,ioos:station:USF.COMPS:C10:1,2019-10-12T03:35:00,27.1690,-82.9260,1016.35,11111222 
COMPS,ioos:station:USF.COMPS:C10:1,2019-10-12T04:35:00,27.1690,-82.9260,1016.32,11111222 
COMPS,ioos:station:USF.COMPS:C10:1,2019-10-12T05:35:00,27.1690,-82.9260,1016.0,11111222 
COMPS,ioos:station:USF.COMPS:C10:1,2019-10-12T06:35:00,27.1690,-82.9260,1015.75,11111222 
COMPS,ioos:station:USF.COMPS:C10:1,2019-10-12T07:35:00,27.1690,-82.9260,1015.06,11111222 
COMPS,ioos:station:USF.COMPS:C10:1,2019-10-12T08:35:00,27.1690,-82.9260,1014.78,11111222 
COMPS,ioos:station:USF.COMPS:C10:1,2019-10-12T09:35:00,27.1690,-82.9260,1014.63,11111222 
COMPS,ioos:station:USF.COMPS:C10:1,2019-10-12T10:35:00,27.1690,-82.9260,1014.79,11111222 
COMPS,ioos:station:USF.COMPS:C10:1,2019-10-12T11:35:00,27.1690,-82.9260,1015.05,11111222 
COMPS,ioos:station:USF.COMPS:C10:1,2019-10-12T12:35:00,27.1690,-82.9260,1015.43,11111222 
COMPS,ioos:station:USF.COMPS:C10:1,2019-10-12T13:35:00,27.1690,-82.9260,1015.82,11111222 
COMPS,ioos:station:USF.COMPS:C10:1,2019-10-12T14:35:00,27.1690,-82.9260,1016.49,11111222 
COMPS,ioos:station:USF.COMPS:C10:1,2019-10-12T15:35:00,27.1690,-82.9260,1016.82,11111222 
COMPS,ioos:station:USF.COMPS:C10:1,2019-10-12T16:35:00,27.1690,-82.9260,1016.61,11111222 
COMPS,ioos:station:USF.COMPS:C10:1,2019-10-12T17:35:00,27.1690,-82.9260,1016.31,11111222 
COMPS,ioos:station:USF.COMPS:C10:1,2019-10-12T18:35:00,27.1690,-82.9260,1015.89,11111222 
COMPS,ioos:station:USF.COMPS:C10:1,2019-10-12T19:35:00,27.1690,-82.9260,1015.4,11111222 
COMPS,ioos:station:USF.COMPS:C10:1,2019-10-12T20:35:00,27.1690,-82.9260,1015.06,11111222 
COMPS,ioos:station:USF.COMPS:C10:1,2019-10-12T21:35:00,27.1690,-82.9260,1015.01,11111222 
COMPS,ioos:station:USF.COMPS:C10:1,2019-10-12T22:35:00,27.1690,-82.9260,1015.16,11111222 
COMPS,ioos:station:USF.COMPS:C10:1,2019-10-12T23:35:00,27.1690,-82.9260,1015.52,11111222 
COMPS,ioos:station:USF.COMPS:C10:1,2019-10-13T00:35:00,27.1690,-82.9260,1015.99,11111222 
COMPS,ioos:station:USF.COMPS:C10:1,2019-10-13T01:35:00,27.1690,-82.9260,1016.19,11111222 
COMPS,ioos:station:USF.COMPS:C10:1,2019-10-13T02:35:00,27.1690,-82.9260,1016.42,11111222 
COMPS,ioos:station:USF.COMPS:C10:1,2019-10-13T03:35:00,27.1690,-82.9260,1016.24,11111222 
COMPS,ioos:station:USF.COMPS:C10:1,2019-10-13T04:35:00,27.1690,-82.9260,1016.18,11111222 
COMPS,ioos:station:USF.COMPS:C10:1,2019-10-13T05:35:00,27.1690,-82.9260,1016.34,11111222 
COMPS,ioos:station:USF.COMPS:C10:1,2019-10-13T06:35:00,27.1690,-82.9260,1015.85,11111222 
COMPS,ioos:station:USF.COMPS:C10:1,2019-10-13T07:35:00,27.1690,-82.9260,1015.24,11111222 
COMPS,ioos:station:USF.COMPS:C10:1,2019-10-13T08:35:00,27.1690,-82.9260,1015.31,11111222 
COMPS,ioos:station:USF.COMPS:C10:1,2019-10-13T09:35:00,27.1690,-82.9260,1015.38,11111222 
COMPS,ioos:station:USF.COMPS:C10:1,2019-10-13T10:35:00,27.1690,-82.9260,1015.81,11111222 
COMPS,ioos:station:USF.COMPS:C10:1,2019-10-13T11:35:00,27.1690,-82.9260,1016.15,11111222 
COMPS,ioos:station:USF.COMPS:C10:1,2019-10-13T12:35:00,27.1690,-82.9260,1016.62,11111222 
COMPS,ioos:station:USF.COMPS:C10:1,2019-10-13T13:35:00,27.1690,-82.9260,1017.23,11111222 
COMPS,ioos:station:USF.COMPS:C10:1,2019-10-13T14:35:00,27.1690,-82.9260,1017.49,11111222 
COMPS,ioos:station:USF.COMPS:C10:1,2019-10-13T15:35:00,27.1690,-82.9260,1017.57,11111222 
COMPS,ioos:station:USF.COMPS:C10:1,2019-10-13T16:35:00,27.1690,-82.9260,1017.38,11111222 
COMPS,ioos:station:USF.COMPS:C10:1,2019-10-13T17:35:00,27.1690,-82.9260,1016.97,11111222 
COMPS,ioos:station:USF.COMPS:C10:1,2019-10-13T18:35:00,27.1690,-82.9260,1016.35,11111222 
COMPS,ioos:station:USF.COMPS:C10:1,2019-10-13T19:35:00,27.1690,-82.9260,1015.72,11111222 
COMPS,ioos:station:USF.COMPS:C10:1,2019-10-13T20:35:00,27.1690,-82.9260,1015.18,11111222 
COMPS,ioos:station:USF.COMPS:C10:1,2019-10-13T21:35:00,27.1690,-82.9260,1015.26,11111222 
COMPS,ioos:station:USF.COMPS:C10:1,2019-10-13T22:35:00,27.1690,-82.9260,1015.31,11111222 
COMPS,ioos:station:USF.COMPS:C10:1,2019-10-13T23:35:00,27.1690,-82.9260,1015.64,11111222 
COMPS,ioos:station:USF.COMPS:C10:1,2019-10-14T00:35:00,27.1690,-82.9260,1016.05,11111222 
COMPS,ioos:station:USF.COMPS:C10:1,2019-10-14T01:35:00,27.1690,-82.9260,1016.48,11111222 
COMPS,ioos:station:USF.COMPS:C10:1,2019-10-14T02:35:00,27.1690,-82.9260,1016.79,11111222 
COMPS,ioos:station:USF.COMPS:C10:1,2019-10-14T03:35:00,27.1690,-82.9260,1016.88,11111222 
COMPS,ioos:station:USF.COMPS:C10:1,2019-10-14T04:35:00,27.1690,-82.9260,1016.88,11111222 
COMPS,ioos:station:USF.COMPS:C10:1,2019-10-14T05:35:00,27.1690,-82.9260,1016.61,11111222 
COMPS,ioos:station:USF.COMPS:C10:1,2019-10-14T06:35:00,27.1690,-82.9260,1016.15,11111222 
COMPS,ioos:station:USF.COMPS:C10:1,2019-10-14T07:35:00,27.1690,-82.9260,1015.89,11111222 
COMPS,ioos:station:USF.COMPS:C10:1,2019-10-14T08:35:00,27.1690,-82.9260,1015.8,11111222 
COMPS,ioos:station:USF.COMPS:C10:1,2019-10-14T09:35:00,27.1690,-82.9260,1015.77,11111222 
COMPS,ioos:station:USF.COMPS:C10:1,2019-10-14T10:35:00,27.1690,-82.9260,1016.2,11111222 
COMPS,ioos:station:USF.COMPS:C10:1,2019-10-14T11:35:00,27.1690,-82.9260,1016.76,11111222 
COMPS,ioos:station:USF.COMPS:C10:1,2019-10-14T12:35:00,27.1690,-82.9260,1017.31,11111222 
COMPS,ioos:station:USF.COMPS:C10:1,2019-10-14T13:35:00,27.1690,-82.9260,1018.05,11111222 
COMPS,ioos:station:USF.COMPS:C10:1,2019-10-14T14:35:00,27.1690,-82.9260,1018.31,11111222 
COMPS,ioos:station:USF.COMPS:C10:1,2019-10-14T15:35:00,27.1690,-82.9260,1018.23,11111222 
COMPS,ioos:station:USF.COMPS:C10:1,2019-10-14T16:35:00,27.1690,-82.9260,1017.82,11111222 
COMPS,ioos:station:USF.COMPS:C10:1,2019-10-14T17:35:00,27.1690,-82.9260,1017.27,11111222 